Location: Baia Mare
(47.6567°N, 23.5850°E)
Time: 14:07:01
(UTC+02:00)

ISS - Pass Details

Date: 08 December 2018
Orbit: 401 x 408 km, 51.6° (Epoch: 16 December)

Event Time Altitude Azimuth Distance (km) Brightness Sun altitude
Rises 17:00:47 0° 286° (WNW) 2,320 0.8 -4.7°
Reaches altitude 10° 17:02:57 10° 294° (WNW) 1,459 -0.4 -5.0°
Maximum altitude 17:06:04 41° 7° (N) 600 -3.2 -5.5°
Drops below altitude 10° 17:09:11 10° 79° (E) 1,455 -1.6 -5.9°
Enters shadow 17:09:52 - 82° (E) 1,723 -1.2 -6.0°
